STARLINK-1376, 45570

Orbit data source: Space-Track

STARLINK-1376, 45570 is a payload satellite owned by SpaceX/Seattle (US) in LEO that was launched on Wed, 22 Apr 2020 UTC via an FALCON 9 launch vehicle from the Air Force Eastern Test Range (AFETR). Payload-class satellites include a variety of spacecraft equipped with specific instruments for various scientific and technological missions. These include communications satellites like Starlink; space stations such as the ISS; scientific satellites like the Hubble; Earth observation satellites from companies like Planet Labs, Umbra, and HawkEye 360; GPS; miniature CubeSats for education and research; and military/defense satellites.

Loading next visibility...
Identifier
45570, 2020-025AR
Orbit
LEO
Country
Flag of USUS
Related business
Manufacturer
SpaceX/Seattle
Mission
Operational Commercial Communications
Bus & Motor
STARLINK, Unknown motor
Mass
260 kg wet, ~248 kg dry
Launch date (UTC)
2020-04-22 (6 years ago)
Launch vehicle
FALCON 9
Launch site
Air Force Eastern Test Range (AFETR)
Object type
Payload
Rocket body
Debris
Shape & HBR
Box + 1 Pan, 10.1 m
Radar Cross Section
13.562 m², Large (>1 m²)

Expand to show TLE details & history
Last TLE update: 6 hours ago

TLE from 6 hours ago
0 STARLINK-1376
1 45570U 20025AR  25304.31188874  .00000758  00000-0  69795-4 0  9994
2 45570  53.0560 307.4181 0001478  86.3425 273.7733 15.06403496305866
Epoch: 2025-10-31T07:29Z
TLE epoch observation values (Epoch: 2025-10-31T07:29:07.187Z)
Latitude
-0°
Longitude
155.28002°
Altitude
548.013 km
Speed
7.589 km/s
True Right ascension
20h 29m 40s
True Declination
0° 00' 00"
Sunlit
Object was in daylight at epoch
Visualization orbit readout
Latitude
Unknown
Longitude
Unknown
Altitude
Unknown
Speed
Unknown
Apparent Right ascension
Unknown
Apparent Declination
Unknown
Sunlit
N/A
Visualization observer readout
Local Sidereal Time
09:11:51
Azimuth
Unknown
Elevation
Unknown
Doppler factor
Unknown
Orbital elements
Apogee altitude
548.495 km
Perigee altitude
546.448 km
Semi-major axis
6,925.608 km
Eccentricity
0.00015
Inclination
53.056°
RAAN
307.4181°
Arg. of periapsis
86.3425°
True anomaly
273.7564°
Mean anomaly
273.7733°
Eccentric anomaly
273.76485°
Mean motion
3.76579 °/min
Orbital period
95.6 mins
BSTAR
0.000069795
Loading maneuver chart data...
Computing Atmospheric mass density...
Loading historical data...
Loading historical data...
Loading historical data...
Loading historical data...
Loading historical data...
Loading historical data...
Loading historical data...

Documentation

Showing up to 5 results
|